Coimbatore International Airport

Jump to: basic info | weather | frequencies | runways | comments

Related pages: nearby airports | nearby navaids | notams | map

Basic information (top)

Codes: CJB VOCB
Location: lon 11.030000, lat 77.043404, elev 1,324 ft / 404 m msl
Status: medium_airport
Scheduled airline service: yes
Links: Wikipedia Mobile

Weather (top)

Current conditions (rec'd 2014/11/29 05:30Z):

VOCB 290530Z 05004KT 3500 HZ BKN080 27/17 Q1014 NOSIG

Airport forecast (rec'd 2014/11/21 00:00Z):

TAF VOCB 202100Z 2100/2206 00000KT 1500 BR FEW015 SCT080 
      BECMG 2105/2106 05010KT 5000 HZ 
      BECMG 2118/2119 VRB02KT 3000 HZ 
      BECMG 2121/2122 00000K 1500 BR

Frequencies (top)

Verify before use: may be inaccurate or out of date.

APP: 120.05 MHz (AFTER 0430 HRS UTC)
ATIS: 128.05 MHz ()
TWR: 118.15 MHz ()

Runways (top)

05/23: 8,480 x 150 ft (2,585 x 46 m) — paved — lighted

Latest comments (top)

re: Flying Club: Dude, i been looking for someone ... [read]

more international flights: is there any near future plan to have ... [read]

Flying Club: Anyone interested in starting a flying ... [read]

More... (top)

See also NOTAMs and nearby airports and navaids, or visit the Coimbatore International Airport page at the main OurAirports website..